Location: Godiavel Galaoual
(15.2485°N, 12.6604°W)
Time: 00:59:58
(UTC+00:00)

Transit 4A - Pass Details

Date: 20 June 2021
Orbit: 872 x 972 km, 66.8° (Epoch: 29 July)

Event Time Altitude Azimuth Distance (km) Brightness Sun altitude
Rises 07:46:49 0° 158° (SSE) 3,608 11.0 18.3°
Reaches altitude 10° 07:51:01 10° 132° (SE) 2,643 10.7 19.2°
Maximum altitude 07:53:36 13° 106° (ESE) 2,425 11.1 19.8°
Drops below altitude 10° 07:56:10 10° 81° (E) 2,614 12.3 20.4°
Sets 08:00:14 0° 54° (NE) 3,533 12.3 21.3°
